Regional Weather Roundup
Issued by NWS

Home | Current Version | Previous Version | Text Only | Print | Product List | Glossary On
Versions: 1 2 3 4 5 6 7 8 9 10 11 12 13 14 15 16 17 18 19 20 21 22 23 24 25 26 27 28 29 30 31 32 33 34 35 36 37 38 39 40 41 42 43 44 45 46 47 48 49 50
000
ASUS43 KLOT 280910
RWRIL

ILLINOIS REGIONAL WEATHER ROUNDUP
NATIONAL WEATHER SERVICE CHICAGO/ROMEOVILLE IL
300 AM CST WED JAN 28 2015

NOTE: "FAIR" INDICATES FEW OR NO CLOUDS BELOW 12,000 FEET WITH NO
SIGNIFICANT WEATHER AND/OR OBSTRUCTIONS TO VISIBILITY.

* THESE STATIONS ARE NOT UNDER NWS QUALITY CONTROL. THEY ALSO MAY NOT
  REPORT WEATHER SUCH AS PRECIPITATION OR FOG.

ILZ001-002-007-009-015-016-024-281000-
NORTHWEST ILLINOIS

CITY           SKY/WX    TMP DP  RH WIND       PRES   REMARKS
MOLINE         CLOUDY    28  24  85 SE8       30.22F WCI  20
STERLING*      CLOUDY    25  21  86 SE6       30.24S WCI  18
SAVANNA*       CLOUDY    29  25  83 S10       30.24S WCI  20
$$

ILZ003-004-008-010-011-017-018-281000-
NORTH CENTRAL ILLINOIS

CITY           SKY/WX    TMP DP  RH WIND       PRES   REMARKS
ROCKFORD       CLOUDY    23  17  78 SE5       30.26F WCI  17
FREEPORT*      CLOUDY    21  17  86 S6        30.24F WCI  13
ROCHELLE*      CLOUDY    21  17  86 SE7       30.25F WCI  12
DE KALB*       CLOUDY    21  18  86 SE6       30.25F WCI  14
PERU*          PTCLDY    24  21  86 SE7       30.26F WCI  16
$$

ILZ005-006-012>014-019>023-281000-
NORTHEAST ILLINOIS

CITY           SKY/WX    TMP DP  RH WIND       PRES   REMARKS
CHICAGO-OHARE  MOCLDY    23  19  85 CALM      30.26S
CHICAGO-MIDWAY PTCLDY    26  20  77 SW3       30.28R
AURORA         CLOUDY    21  16  81 CALM      30.27S
LANSING*       PTCLDY    20  18  93 CALM      30.29R
JOLIET*        PTCLDY    17  15  93 CALM      30.29S
WAUKEGAN       MOCLDY    20  16  84 CALM      30.26S
DUPAGE AIRPORT MOCLDY    20  16  84 CALM      30.25F
KANKAKEE*      PTCLDY    17  16  93 CALM      30.29S
WHEELING       MOCLDY    22  19  89 CALM      30.28S
MORRIS*        CLOUDY    22  19  89 E3        30.27R
ROMEOVILLE*    MOCLDY    21  18  88 SE3       30.27F
NORTHERLY ISL    N/A     28  20  71 CALM        N/A
$$

LMZ740>746-281000-
SOUTHERN LAKE MICHIGAN

STATION/POSITION SKY/WX   TEMP    WIND        PRES    VSBY  WAVE
                          AIR SEA DIR/SP/G                  HT/PER
                          (F)     (DEG/KT/KT) (MB)    (MI)  (FT/S)
WAUKEGAN HARBOR            25        CALM       N/A
HARRISON CRIB              28     190/  2/  3   N/A
BURNHAM HARBOR             28     260/  2/  3   N/A
CALUMET HARBOR             25     170/  4/  6   N/A
MICHIGAN CITY              22     130/  5/  6   N/A
$$

ILZ025>027-034>036-040-047-049-050-058-095>099-281000-
WEST-CENTRAL ILLINOIS

CITY           SKY/WX    TMP DP  RH WIND       PRES   REMARKS
QUINCY         CLEAR     28  25  88 SE9       30.20S FOG     WCI  19
GALESBURG*     CLOUDY    29  26  89 SE6       30.22F WCI  23
MACOMB*        CLOUDY    30  28  94 SE7       30.25R FOG     WCI  23
JACKSONVILLE*  CLEAR     29  26  87 SE9       30.23F WCI  21
PITTSFIELD*    CLEAR     28  27  93 SE7       30.24R FOG     WCI  21
$$

ILZ028>032-037-038-041>044-048-051>054-059>061-281000-
CENTRAL ILLINOIS

CITY           SKY/WX    TMP DP  RH WIND       PRES   REMARKS
PONTIAC        PTCLDY    24  21  89 SE6       30.27S WCI  16
BLOOMINGTON    PTCLDY    24  22  92 SE7       30.26S WCI  16
DECATUR        CLEAR     23  19  85 SE5       30.27R WCI  17
PEORIA         MOCLDY    29  23  78 SE5       30.25F WCI  24
LACON*         CLOUDY    29  24  84 SE6       30.24F WCI  23
LINCOLN*       CLEAR     26  23  89 CALM      30.27F
SPRINGFIELD    CLEAR     25  21  85 SE6       30.26S WCI  18
TAYLORVILLE    CLEAR     27  23  86 SE7       30.25F WCI  19
$$

ILZ033-039-045-046-055>057-062-063-281000-
EAST-CENTRAL ILLINOIS

CITY           SKY/WX    TMP DP  RH WIND       PRES   REMARKS
CHAMPAIGN      PTCLDY    20  17  88 E6        30.27S FOG     WCI  12
DANVILLE*      CLEAR     18  16  90 CALM      30.25S
RANTOUL*       CLEAR     23  18  83 E3        30.28S
MATTOON        CLEAR     21  17  84 SE5       30.26S WCI  15
PARIS*         PTCLDY    19  18  95 CALM      30.31R
$$

ILZ079-100>102-281000-
SOUTHWEST ILLINOIS

CITY           SKY/WX    TMP DP  RH WIND       PRES   REMARKS
ALTON          CLEAR     26  25  96 E6        30.26R FOG     WCI  20
BELLEVILLE     CLEAR     25  25 100 SE2       30.26S
CAHOKIA*       CLEAR     30  26  85 SE8       30.26R WCI  22
SPARTA*        CLEAR     26  25  96 CALM      30.27S FOG
$$

ILZ064>066-069>071-074>076-080>082-084>086-088>090-092>094-281000-
SOUTH-CENTRAL ILLINOIS

CITY           SKY/WX    TMP DP  RH WIND       PRES   REMARKS
CARBONDALE     CLEAR     24  22  91 E3        30.27S FOG
CAIRO*         CLEAR     28  26  92 CALM      30.28S
EFFINGHAM*     CLEAR     27  18  70 E6        30.29S WCI  20
MARION         CLEAR     27  25  93 CALM      30.28S FOG
MT. VERNON     CLEAR     27  21  80 E5        30.28R WCI  21
CENTRALIA*     PTCLDY    26  23  86 CALM      30.27R
SALEM*         PTCLDY    29  25  84 E5        30.26F WCI  24
METROPOLIS*    CLEAR     27  27 100 CALM      30.26R FOG
$$

ILZ067-068-072-073-078-083-087-091-281000-
SOUTHEAST ILLINOIS

CITY           SKY/WX    TMP DP  RH WIND       PRES   REMARKS
LAWRENCEVILLE  CLEAR     24  22  91 NE5       30.31R WCI  18
FLORA*         CLEAR     25  22  87 E5        30.29R WCI  20
FAIRFIELD*     CLEAR     27  24  86 NE3       30.27S
HARRISBURG*    CLEAR     29  28  96 E6        30.29S WCI  23
ROBINSON*      CLEAR     20  20  97 CALM      30.32R FOG
CARMI*         CLEAR     26  25  96 E3        30.29S
$$

ABBREVIATIONS USED IN REMARKS
   TC - TEMPERATURE IN CELSIUS
  WCI - WIND CHILL INDEX
   HX - HEAT INDEX
  VSB - VISIBILITY
$$



USA.gov is the U.S. government's official web portal to all federal, state and local government web resources and services.